This is the latest recevied weather packets stored in our database for station/object KC4GS-13. If no packets are shown the sender has not sent any weather packets the latest 10 day(s).
| Time | Temp. | Humidity | Pressure | Rain* | Wind** | Luminosity | Snow |
|---|---|---|---|---|---|---|---|
| 1787485609 | 21.67° C | 97% | 1016.1 hPa | 0 mm | - | 28 W/m² | - |
| 1787485304 | 21.67° C | 97% | 1015.9 hPa | 0 mm | - | 25 W/m² | - |
| 1787485000 | 21.67° C | 97% | 1015.9 hPa | 0 mm | - | 18 W/m² | - |
| 1787484697 | 21.11° C | 97% | 1015.8 hPa | 0 mm | - | 15 W/m² | - |
| 1787484392 | 21.11° C | 97% | 1015.5 hPa | 0 mm | - | 10 W/m² | - |
| 1787484089 | 21.67° C | 97% | 1015.7 hPa | 0 mm | - | 8 W/m² | - |
| 1787483789 | 21.67° C | 97% | 1015.4 hPa | 0 mm | - | 6 W/m² | - |
| 1787483486 | 21.67° C | 97% | 1015.6 hPa | 0 mm | - | 5 W/m² | - |
| 1787483182 | 21.67° C | 97% | 1015.4 hPa | 0 mm | - | 2 W/m² | - |
| 1787482878 | 21.67° C | 97% | 1015.4 hPa | 0 mm | - | 1 W/m² | - |
| 1787482573 | 21.67° C | 97% | 1015.3 hPa | 0 mm | - | 0 W/m² | - |
| 1787482269 | 21.67° C | 97% | 1015.3 hPa | 0 mm | - | 0 W/m² | - |
| 1787481964 | 21.67° C | 97% | 1015.4 hPa | 0 mm | - | 0 W/m² | - |
| 1787481660 | 21.67° C | 97% | 1015.3 hPa | 0 mm | - | 0 W/m² | - |
| 1787481358 | 21.67° C | 97% | 1015.4 hPa | 0 mm | - | 0 W/m² | - |
| 1787481053 | 21.67° C | 97% | 1015.2 hPa | 0 mm | - | 0 W/m² | - |
| 1787480748 | 21.67° C | 97% | 1014.9 hPa | 0 mm | - | 0 W/m² | - |
| 1787480444 | 22.22° C | 97% | 1015.1 hPa | 0 mm | - | 0 W/m² | - |
| 1787480141 | 22.22° C | 97% | 1015.1 hPa | 0 mm | - | 0 W/m² | - |
| 1787479837 | 22.22° C | 97% | 1014.9 hPa | 0 mm | - | 0 W/m² | - |
| 1787479533 | 22.22° C | 97% | 1015.1 hPa | 0 mm | - | 0 W/m² | - |
| 1787479230 | 22.22° C | 97% | 1015 hPa | 0 mm | - | 0 W/m² | - |
| 1787478927 | 22.22° C | 97% | 1014.9 hPa | 0 mm | - | 0 W/m² | - |
| 1787478622 | 22.22° C | 97% | 1014.9 hPa | 0 mm | - | 0 W/m² | - |
| 1787478318 | 22.22° C | 97% | 1014.8 hPa | 0 mm | - | 0 W/m² | - |
* Rain latest hour (hover to see other rain measurements)
** Current wind speed in m/s (hover to see current wind gust speed)